Regional Weather Roundup
Issued by NWS Bismarck, ND

Home | Current Version | Previous Version | Text Only | Print | Product List | Glossary On
Versions: 1 2 3 4 5 6 7 8 9 10 11 12 13 14 15 16 17 18 19 20 21 22 23 24 25 26 27 28 29 30 31 32 33 34 35 36 37 38 39 40 41 42 43 44 45 46 47 48 49 50
000
ASUS43 KBIS 190859
RWRBIS

NWR BROADCAST TEXT
NATIONAL WEATHER SERVICE BISMARCK ND
400 AM CDT FRI SEP 19 2014

NOTE: "FAIR" INDICATES FEW OR NO CLOUDS BELOW 12,000 FEET WITH NO
SIGNIFICANT WEATHER AND/OR OBSTRUCTIONS TO VISIBILITY.


CITY           SKY/WX    TMP DP  RH WIND       PRES   REMARKS
WILLISTON      CLOUDY    61  53  75 SW6       29.56F
MINOT          CLOUDY    66  57  72 SW9       29.52F
MINOT AFB      NOT AVBL
BISMARCK       CLOUDY    65  62  90 S5        29.62F
DICKINSON      NOT AVBL
GARRISON         N/A     63  59  87 SW6       29.56F
HETTINGER ARPT LGT RAIN  66  55  67 W17G25    29.68S
JAMESTOWN      NOT AVBL
CARRINGTON     FAIR      64  64 100 S12G22    29.62S
WATFORD CITY   FAIR      61  54  77 SW8       29.56F
$$

CITY           SKY/WX    TMP DP  RH WIND       PRES   REMARKS
GRAND FORKS    CLOUDY    65  57  75 S18G26    29.60F
GRAND FORKS AF NOT AVBL
DEVILS LAKE    CLOUDY    66  55  68 S16G23    29.55F
FARGO          CLOUDY    64  55  72 S16G24    29.69F
CAVALIER       FAIR      68  59  73 S15G21    29.52F
GWINNER        SUNNY     66  59  77 S17       29.71S
$$

CITY           SKY/WX    TMP DP  RH WIND       PRES   REMARKS
ABERDEEN       CLOUDY    65  58  78 SW14G24   29.77R
MOBRIDGE       CLOUDY    66  62  87 E14G24    29.56F
RAPID CITY     PTCLDY    70  51  51 NW17      29.78R
GLASGOW        MOCLDY    59  50  72 W8        29.63S
SIDNEY         MOCLDY    59  54  82 S7        29.60F
WOLF POINT     CLOUDY    60  54  80 W7        29.61S
GLENDIVE       CLOUDY    66  54  63 W16       29.65F
MILES CITY     CLOUDY    62  54  74 SW6       29.70S
BAKER          CLOUDY    65  54  67 SW10      29.71F
$$

CITY           SKY/WX    TMP DP  RH WIND       PRES   REMARKS
BILLINGS       CLOUDY    63  52  67 SW15      29.81F
GREAT FALLS    CLOUDY    60  42  51 SW14      29.78S
$$



USA.gov is the U.S. government's official web portal to all federal, state and local government web resources and services.